﻿測定場所 (Monitoring sites),日付 (Measurement date),時間 (Measurement time),線量率 最大値 (max) μGy/h,線量率 最小値 (min) μGy/h,線量率 平均値 (average) μGy/h,
小平 (Kodaira),2013-06-30,23:01～24:00,0.0367,0.0324,0.0347,
小平 (Kodaira),2013-06-30,22:01～23:00,0.0364,0.0327,0.0344,
小平 (Kodaira),2013-06-30,21:01～22:00,0.0371,0.0323,0.0346,
小平 (Kodaira),2013-06-30,20:01～21:00,0.0363,0.0326,0.0347,
小平 (Kodaira),2013-06-30,19:01～20:00,0.0366,0.0326,0.0345,
小平 (Kodaira),2013-06-30,18:01～19:00,0.0362,0.0325,0.0344,
小平 (Kodaira),2013-06-30,17:01～18:00,0.0371,0.0321,0.0347,
小平 (Kodaira),2013-06-30,16:01～17:00,0.0368,0.0321,0.0345,
小平 (Kodaira),2013-06-30,15:01～16:00,0.0364,0.0329,0.0347,
小平 (Kodaira),2013-06-30,14:01～15:00,0.0372,0.0322,0.0345,
小平 (Kodaira),2013-06-30,13:01～14:00,0.0365,0.0325,0.0345,
小平 (Kodaira),2013-06-30,12:01～13:00,0.0368,0.0324,0.0344,
小平 (Kodaira),2013-06-30,11:01～12:00,0.0365,0.0326,0.0346,
小平 (Kodaira),2013-06-30,10:01～11:00,0.0380,0.0325,0.0346,
小平 (Kodaira),2013-06-30,09:01～10:00,0.0365,0.0320,0.0346,
小平 (Kodaira),2013-06-30,08:01～09:00,0.0367,0.0323,0.0345,
小平 (Kodaira),2013-06-30,07:01～08:00,0.0366,0.0327,0.0346,
小平 (Kodaira),2013-06-30,06:01～07:00,0.0379,0.0330,0.0346,
小平 (Kodaira),2013-06-30,05:01～06:00,0.0364,0.0325,0.0347,
小平 (Kodaira),2013-06-30,04:01～05:00,0.0364,0.0325,0.0347,
小平 (Kodaira),2013-06-30,03:01～04:00,0.0364,0.0324,0.0345,
小平 (Kodaira),2013-06-30,02:01～03:00,0.0368,0.0326,0.0346,
小平 (Kodaira),2013-06-30,01:01～02:00,0.0361,0.0316,0.0345,
小平 (Kodaira),2013-06-30,00:01～01:00,0.0369,0.0325,0.0346,
小平 (Kodaira),2013-06-29,23:01～24:00,0.0370,0.0316,0.0346,
小平 (Kodaira),2013-06-29,22:01～23:00,0.0370,0.0327,0.0345,
小平 (Kodaira),2013-06-29,21:01～22:00,0.0364,0.0316,0.0344,
小平 (Kodaira),2013-06-29,20:01～21:00,0.0365,0.0320,0.0344,
小平 (Kodaira),2013-06-29,19:01～20:00,0.0364,0.0321,0.0346,
小平 (Kodaira),2013-06-29,18:01～19:00,0.0368,0.0324,0.0347,
小平 (Kodaira),2013-06-29,17:01～18:00,0.0365,0.0326,0.0346,
小平 (Kodaira),2013-06-29,16:01～17:00,0.0364,0.0327,0.0345,
小平 (Kodaira),2013-06-29,15:01～16:00,0.0372,0.0319,0.0346,
小平 (Kodaira),2013-06-29,14:01～15:00,0.0381,0.0321,0.0343,
小平 (Kodaira),2013-06-29,13:01～14:00,0.0368,0.0327,0.0350,
小平 (Kodaira),2013-06-29,12:01～13:00,0.0379,0.0326,0.0349,
小平 (Kodaira),2013-06-29,11:01～12:00,0.0367,0.0329,0.0348,
小平 (Kodaira),2013-06-29,10:01～11:00,0.0368,0.0328,0.0348,
小平 (Kodaira),2013-06-29,09:01～10:00,0.0367,0.0331,0.0348,
小平 (Kodaira),2013-06-29,08:01～09:00,0.0375,0.0336,0.0353,
小平 (Kodaira),2013-06-29,07:01～08:00,0.0394,0.0343,0.0360,
小平 (Kodaira),2013-06-29,06:01～07:00,0.0387,0.0330,0.0359,
小平 (Kodaira),2013-06-29,05:01～06:00,0.0404,0.0341,0.0366,
小平 (Kodaira),2013-06-29,04:01～05:00,0.0384,0.0335,0.0357,
小平 (Kodaira),2013-06-29,03:01～04:00,0.0383,0.0338,0.0357,
小平 (Kodaira),2013-06-29,02:01～03:00,0.0377,0.0327,0.0352,
小平 (Kodaira),2013-06-29,01:01～02:00,0.0376,0.0327,0.0350,
小平 (Kodaira),2013-06-29,00:01～01:00,0.0364,0.0322,0.0343,
小平 (Kodaira),2013-06-28,23:01～24:00,0.0365,0.0329,0.0346,
小平 (Kodaira),2013-06-28,22:01～23:00,0.0363,0.0325,0.0345,
小平 (Kodaira),2013-06-28,21:01～22:00,0.0366,0.0328,0.0345,
小平 (Kodaira),2013-06-28,20:01～21:00,0.0375,0.0326,0.0347,
小平 (Kodaira),2013-06-28,19:01～20:00,0.0376,0.0328,0.0345,
小平 (Kodaira),2013-06-28,18:01～19:00,0.0367,0.0327,0.0348,
小平 (Kodaira),2013-06-28,17:01～18:00,0.0361,0.0321,0.0345,
小平 (Kodaira),2013-06-28,16:01～17:00,0.0363,0.0325,0.0344,
小平 (Kodaira),2013-06-28,15:01～16:00,0.0368,0.0329,0.0346,
小平 (Kodaira),2013-06-28,14:01～15:00,0.0357,0.0324,0.0343,
小平 (Kodaira),2013-06-28,13:01～14:00,0.0375,0.0326,0.0346,
小平 (Kodaira),2013-06-28,12:01～13:00,0.0368,0.0324,0.0345,
小平 (Kodaira),2013-06-28,11:01～12:00,0.0381,0.0319,0.0344,
小平 (Kodaira),2013-06-28,10:01～11:00,0.0364,0.0327,0.0347,
小平 (Kodaira),2013-06-28,09:01～10:00,0.0371,0.0327,0.0348,
小平 (Kodaira),2013-06-28,08:01～09:00,0.0370,0.0329,0.0346,
小平 (Kodaira),2013-06-28,07:01～08:00,0.0369,0.0326,0.0347,
小平 (Kodaira),2013-06-28,06:01～07:00,0.0375,0.0328,0.0347,
小平 (Kodaira),2013-06-28,05:01～06:00,0.0370,0.0326,0.0346,
小平 (Kodaira),2013-06-28,04:01～05:00,0.0368,0.0327,0.0343,
小平 (Kodaira),2013-06-28,03:01～04:00,0.0371,0.0331,0.0347,
小平 (Kodaira),2013-06-28,02:01～03:00,0.0362,0.0320,0.0344,
小平 (Kodaira),2013-06-28,01:01～02:00,0.0369,0.0323,0.0344,
小平 (Kodaira),2013-06-28,00:01～01:00,0.0365,0.0325,0.0342,
小平 (Kodaira),2013-06-27,23:01～24:00,0.0364,0.0326,0.0342,
小平 (Kodaira),2013-06-27,22:01～23:00,0.0361,0.0320,0.0344,
小平 (Kodaira),2013-06-27,21:01～22:00,0.0371,0.0328,0.0344,
小平 (Kodaira),2013-06-27,20:01～21:00,0.0357,0.0322,0.0342,
小平 (Kodaira),2013-06-27,19:01～20:00,0.0368,0.0323,0.0341,
小平 (Kodaira),2013-06-27,18:01～19:00,0.0368,0.0315,0.0345,
小平 (Kodaira),2013-06-27,17:01～18:00,0.0371,0.0326,0.0344,
小平 (Kodaira),2013-06-27,16:01～17:00,0.0365,0.0327,0.0345,
小平 (Kodaira),2013-06-27,15:01～16:00,0.0364,0.0315,0.0344,
小平 (Kodaira),2013-06-27,14:01～15:00,0.0363,0.0328,0.0344,
小平 (Kodaira),2013-06-27,13:01～14:00,0.0365,0.0325,0.0346,
小平 (Kodaira),2013-06-27,12:01～13:00,0.0364,0.0314,0.0345,
小平 (Kodaira),2013-06-27,11:01～12:00,0.0368,0.0325,0.0344,
小平 (Kodaira),2013-06-27,10:01～11:00,0.0359,0.0328,0.0344,
小平 (Kodaira),2013-06-27,09:01～10:00,0.0366,0.0326,0.0349,
小平 (Kodaira),2013-06-27,08:01～09:00,0.0366,0.0328,0.0345,
小平 (Kodaira),2013-06-27,07:01～08:00,0.0373,0.0333,0.0351,
小平 (Kodaira),2013-06-27,06:01～07:00,0.0376,0.0333,0.0356,
小平 (Kodaira),2013-06-27,05:01～06:00,0.0396,0.0342,0.0361,
小平 (Kodaira),2013-06-27,04:01～05:00,0.0419,0.0347,0.0378,
小平 (Kodaira),2013-06-27,03:01～04:00,0.0442,0.0373,0.0399,
小平 (Kodaira),2013-06-27,02:01～03:00,0.0419,0.0356,0.0386,
小平 (Kodaira),2013-06-27,01:01～02:00,0.0418,0.0354,0.0380,
小平 (Kodaira),2013-06-27,00:01～01:00,0.0447,0.0366,0.0407,
小平 (Kodaira),2013-06-26,23:01～24:00,0.0486,0.0399,0.0438,
小平 (Kodaira),2013-06-26,22:01～23:00,0.0454,0.0398,0.0423,
小平 (Kodaira),2013-06-26,21:01～22:00,0.0432,0.0369,0.0398,
小平 (Kodaira),2013-06-26,20:01～21:00,0.0445,0.0373,0.0407,
小平 (Kodaira),2013-06-26,19:01～20:00,0.0487,0.0400,0.0444,
小平 (Kodaira),2013-06-26,18:01～19:00,0.0504,0.0423,0.0462,
小平 (Kodaira),2013-06-26,17:01～18:00,0.0539,0.0467,0.0505,
小平 (Kodaira),2013-06-26,16:01～17:00,0.0528,0.0442,0.0487,
小平 (Kodaira),2013-06-26,15:01～16:00,0.0505,0.0432,0.0468,
小平 (Kodaira),2013-06-26,14:01～15:00,0.0487,0.0429,0.0461,
小平 (Kodaira),2013-06-26,13:01～14:00,0.0481,0.0396,0.0434,
小平 (Kodaira),2013-06-26,12:01～13:00,0.0437,0.0361,0.0402,
小平 (Kodaira),2013-06-26,11:01～12:00,0.0418,0.0358,0.0377,
小平 (Kodaira),2013-06-26,10:01～11:00,0.0413,0.0358,0.0378,
小平 (Kodaira),2013-06-26,09:01～10:00,0.0417,0.0350,0.0376,
小平 (Kodaira),2013-06-26,08:01～09:00,0.0371,0.0326,0.0346,
小平 (Kodaira),2013-06-26,07:01～08:00,0.0363,0.0328,0.0343,
小平 (Kodaira),2013-06-26,06:01～07:00,0.0368,0.0328,0.0345,
小平 (Kodaira),2013-06-26,05:01～06:00,0.0360,0.0322,0.0344,
小平 (Kodaira),2013-06-26,04:01～05:00,0.0362,0.0324,0.0345,
小平 (Kodaira),2013-06-26,03:01～04:00,0.0370,0.0328,0.0347,
小平 (Kodaira),2013-06-26,02:01～03:00,0.0364,0.0324,0.0345,
小平 (Kodaira),2013-06-26,01:01～02:00,0.0370,0.0318,0.0348,
小平 (Kodaira),2013-06-26,00:01～01:00,0.0362,0.0322,0.0342,
小平 (Kodaira),2013-06-25,23:01～24:00,0.0371,0.0317,0.0344,
小平 (Kodaira),2013-06-25,22:01～23:00,0.0364,0.0322,0.0344,
小平 (Kodaira),2013-06-25,21:01～22:00,0.0356,0.0322,0.0343,
小平 (Kodaira),2013-06-25,20:01～21:00,0.0367,0.0320,0.0345,
小平 (Kodaira),2013-06-25,19:01～20:00,0.0365,0.0327,0.0344,
小平 (Kodaira),2013-06-25,18:01～19:00,0.0365,0.0330,0.0344,
小平 (Kodaira),2013-06-25,17:01～18:00,0.0370,0.0326,0.0346,
小平 (Kodaira),2013-06-25,16:01～17:00,0.0382,0.0330,0.0355,
小平 (Kodaira),2013-06-25,15:01～16:00,0.0429,0.0342,0.0382,
小平 (Kodaira),2013-06-25,14:01～15:00,0.0548,0.0388,0.0473,
小平 (Kodaira),2013-06-25,13:01～14:00,0.0614,0.0529,0.0580,
小平 (Kodaira),2013-06-25,12:01～13:00,0.0597,0.0343,0.0442,
小平 (Kodaira),2013-06-25,11:01～12:00,0.0394,0.0329,0.0353,
小平 (Kodaira),2013-06-25,10:01～11:00,0.0372,0.0329,0.0351,
小平 (Kodaira),2013-06-25,09:01～10:00,0.0370,0.0337,0.0353,
小平 (Kodaira),2013-06-25,08:01～09:00,0.0388,0.0331,0.0355,
小平 (Kodaira),2013-06-25,07:01～08:00,0.0365,0.0338,0.0352,
小平 (Kodaira),2013-06-25,06:01～07:00,0.0373,0.0336,0.0355,
小平 (Kodaira),2013-06-25,05:01～06:00,0.0370,0.0339,0.0352,
小平 (Kodaira),2013-06-25,04:01～05:00,0.0368,0.0336,0.0354,
小平 (Kodaira),2013-06-25,03:01～04:00,0.0370,0.0327,0.0354,
小平 (Kodaira),2013-06-25,02:01～03:00,0.0376,0.0322,0.0353,
小平 (Kodaira),2013-06-25,01:01～02:00,0.0374,0.0326,0.0354,
小平 (Kodaira),2013-06-25,00:01～01:00,0.0392,0.0337,0.0355,
小平 (Kodaira),2013-06-24,23:01～24:00,0.0382,0.0335,0.0354,
小平 (Kodaira),2013-06-24,22:01～23:00,0.0374,0.0339,0.0355,
小平 (Kodaira),2013-06-24,21:01～22:00,0.0381,0.0339,0.0359,
小平 (Kodaira),2013-06-24,20:01～21:00,0.0376,0.0331,0.0361,
小平 (Kodaira),2013-06-24,19:01～20:00,0.0376,0.0335,0.0356,
小平 (Kodaira),2013-06-24,18:01～19:00,0.0365,0.0336,0.0353,
小平 (Kodaira),2013-06-24,17:01～18:00,0.0370,0.0338,0.0354,
小平 (Kodaira),2013-06-24,16:01～17:00,0.0380,0.0325,0.0351,
小平 (Kodaira),2013-06-24,15:01～16:00,0.0369,0.0327,0.0351,
小平 (Kodaira),2013-06-24,14:01～15:00,0.0364,0.0330,0.0350,
小平 (Kodaira),2013-06-24,13:01～14:00,0.0370,0.0329,0.0350,
小平 (Kodaira),2013-06-24,12:01～13:00,0.0387,0.0337,0.0355,
小平 (Kodaira),2013-06-24,11:01～12:00,0.0384,0.0332,0.0354,
小平 (Kodaira),2013-06-24,10:01～11:00,0.0372,0.0334,0.0352,
小平 (Kodaira),2013-06-24,09:01～10:00,0.0371,0.0329,0.0353,
小平 (Kodaira),2013-06-24,08:01～09:00,0.0377,0.0336,0.0354,
小平 (Kodaira),2013-06-24,07:01～08:00,0.0371,0.0330,0.0353,
小平 (Kodaira),2013-06-24,06:01～07:00,0.0367,0.0323,0.0350,
小平 (Kodaira),2013-06-24,05:01～06:00,0.0370,0.0330,0.0352,
小平 (Kodaira),2013-06-24,04:01～05:00,0.0374,0.0334,0.0355,
小平 (Kodaira),2013-06-24,03:01～04:00,0.0388,0.0346,0.0361,
小平 (Kodaira),2013-06-24,02:01～03:00,0.0373,0.0334,0.0354,
小平 (Kodaira),2013-06-24,01:01～02:00,0.0365,0.0335,0.0350,
小平 (Kodaira),2013-06-24,00:01～01:00,0.0373,0.0326,0.0352,
